Weather in Kustolovo-Suhodilka

Ukraine / Poltava Region     49°22′56″N   34°43′29″E
temp.,
°C
wind,
m/s
gust,
m/s
humid.,
%
clouds,
%
prec.,
mm/h
press.,
hPa
HPBL,
m
6 march, sat
sat623:000nne3682100 0.0 1016346
02:000n4784100 0.0 1017412
05:00−1n3674100 0.1 1017593
08:00−1n4669100 0.1 1019657
11:00+1n6850100 0.0 10201321
14:00+1nnw793955 0.0 10201518
17:00−1nnw610490 0.0 10211443
20:00−2wnw48590 0.0 1023791
7 march, sun
sun723:00−2w486615 0.0 1024597
02:00−3w48698 0.0 1024448
05:00−3w49650 0.0 1023462
08:00−2wsw711536 0.0 1021744
11:00+2wsw9134798 0.0 10181328
14:00+3wsw11155497 0.0 10151388
17:00+1wsw81570100 0.0 10131212
20:00+1wsw8157298 0.0 1012860
8 march, mon
mon823:000wsw7147483 0.0 1011746
02:00−1wsw7139184 0.1 1010768
05:00−1w71288100 0.3 1009803
08:000w71284100 0.4 1010847
11:00+1nw6960100 0.7 10111080
14:00+1nw6754100 0.7 10131431
17:00−1nw466498 0.0 1013735
20:00−3nnw247095 0.0 1016453
9 march, tue
tue923:00−4w127316 0.0 101639
02:00−4wsw237329 0.0 1016193
05:00−4wsw3589100 0.1 1016342
08:00−2wnw4576100 0.6 1017772
11:00−1nnw675583 0.1 10191423
14:00−2nnw675192 0.2 10201280
17:00−4nnw57558 0.0 10221033
20:00−5n46634 0.0 1024754
10 march, wed
wed1023:00−5n236213 0.0 1025599
02:00−6nnw126142 0.0 1025423
05:00−6sw016678 0.0 102562
08:00−5sw225884 0.0 1025390
11:00−3sw223993 0.0 1024749
14:00−1wsw233397 0.0 10231024
17:00−2wsw234095 0.0 1022287
20:00−3wsw23484 0.0 102256